Hourly Data Report for July 19, 2017

PITT MEADOWS CS
BRITISH COLUMBIA

49°12'29.964" N
122°41'24.076" W
5.00 m
1106178
71775
WMM

Download Data

Hourly Data (July 2017)
Hourly Data Report for July 19, 2017
TIME
LST
Temp Definition
°C
Dew Point Definition
°C
Rel Hum Definition
%
Precip. Amount Definition
mm

Wind Dir Definition
10's deg

Wind Spd Definition
km/h
Visibility Definition
km
Stn Press Definition
kPa
Hmdx Definition


Wind Chill Definition


Weather Definition


00:00 15.8 11.0 73 0.0 10 3   101.59     LegendNANA
01:00 14.2 10.6 79 0.0 14 4   101.62     LegendNANA
02:00 13.7 9.9 77 0.0 12 6   101.66     LegendNANA
03:00 13.9 9.4 75 0.0 9 4   101.70     LegendNANA
04:00 12.7 9.6 82 0.0 13 1   101.75     LegendNANA
05:00 12.7 10.3 86 0.0 8 5   101.78     LegendNANA
06:00 15.9 10.1 68 0.0 10 4   101.83     LegendNANA
07:00 17.6 6.2 47 0.0 10 11   101.86     LegendNANA
08:00 19.0 7.1 46 0.0 11 11   101.88     LegendNANA
09:00 20.7 6.8 40 0.0 14 5   101.86     LegendNANA
10:00 21.8 6.7 38 0.0 15 4   101.83     LegendNANA
11:00 23.4 6.9 35 0.0 20 5   101.79     LegendNANA
12:00 23.9 6.4 32 0.0 21 10   101.74     LegendNANA
13:00 24.0 6.2 32 0.0 22 9   101.69     LegendNANA
14:00 24.2 7.2 34 0.0 21 8   101.62     LegendNANA
15:00 24.2 6.5 32 0.0 19 7   101.56     LegendNANA
16:00 23.1 6.7 35 0.0 18 7   101.51     LegendNANA
17:00 22.5 7.8 39 0.0 18 6   101.45     LegendNANA
18:00 21.8 8.4 42 0.0 18 5   101.43     LegendNANA
19:00 21.0 9.6 48 0.0 18 2   101.43     LegendNANA
20:00 18.2 10.1 59 0.0 15 3   101.45     LegendNANA
21:00 17.5 11.1 66 0.0 11 6   101.47     LegendNANA
22:00 17.0 11.3 69 0.0 9 2   101.49     LegendNANA
23:00 17.9 11.7 67 0.0 16 3   101.51     LegendNANA

Notes on Data Quality.

Legend

  • E = Estimated
  • M = Missing
  • NA = Not Available*
  • [empty] = Indicates an unobserved value
Date modified: